Year,Month,Day,Hour,Minute,Value (Times are PST for temperature in C)
2016,12,01,00,00,3.50
2016,12,01,00,01,3.50
2016,12,01,00,02,3.60
2016,12,01,00,03,3.60
2016,12,01,00,04,3.60
2016,12,01,00,05,3.50
2016,12,01,00,06,3.50
2016,12,01,00,07,3.50
2016,12,01,00,08,3.50
2016,12,01,00,09,3.50
2016,12,01,00,10,3.50
2016,12,01,00,11,3.50
2016,12,01,00,12,3.50
2016,12,01,00,13,3.50
2016,12,01,00,14,3.50
2016,12,01,00,15,3.50
2016,12,01,00,16,3.50
2016,12,01,00,17,3.50
2016,12,01,00,18,3.50
2016,12,01,00,19,3.50
2016,12,01,00,20,3.50
2016,12,01,00,21,3.50
2016,12,01,00,22,3.50
2016,12,01,00,23,3.50
2016,12,01,00,24,3.50
2016,12,01,00,25,3.50
2016,12,01,00,26,3.50
2016,12,01,00,27,3.60
2016,12,01,00,28,3.60
2016,12,01,00,29,3.60
2016,12,01,00,30,3.50
2016,12,01,00,31,3.50
2016,12,01,00,32,3.50
2016,12,01,00,33,3.50
2016,12,01,00,34,3.40
2016,12,01,00,35,3.40
2016,12,01,00,36,3.40
2016,12,01,00,37,3.40
2016,12,01,00,38,3.40
2016,12,01,00,39,3.40
2016,12,01,00,40,3.50
2016,12,01,00,41,3.50
2016,12,01,00,42,3.60
2016,12,01,00,43,3.60
2016,12,01,00,44,3.60
2016,12,01,00,45,3.60
2016,12,01,00,46,3.50
2016,12,01,00,47,3.50
2016,12,01,00,48,3.50
2016,12,01,00,49,3.40
2016,12,01,00,50,3.40
2016,12,01,00,51,3.40
2016,12,01,00,52,3.40
2016,12,01,00,53,3.40
2016,12,01,00,54,3.50
2016,12,01,00,55,3.50
2016,12,01,00,56,3.60
2016,12,01,00,57,3.60
2016,12,01,00,58,3.70
2016,12,01,00,59,3.70
2016,12,01,01,00,3.70
2016,12,01,01,01,3.80
2016,12,01,01,02,3.80
2016,12,01,01,03,3.80
2016,12,01,01,04,3.80
2016,12,01,01,05,3.80
2016,12,01,01,06,3.90
2016,12,01,01,07,3.90
2016,12,01,01,08,3.80
2016,12,01,01,09,3.80
2016,12,01,01,10,3.80
2016,12,01,01,11,3.80
2016,12,01,01,12,3.80
2016,12,01,01,13,3.80
2016,12,01,01,14,3.80
2016,12,01,01,15,3.80
2016,12,01,01,16,3.80
2016,12,01,01,17,3.80
2016,12,01,01,18,3.80
2016,12,01,01,19,3.80
2016,12,01,01,20,3.80
2016,12,01,01,21,3.70
2016,12,01,01,22,3.70
2016,12,01,01,23,3.70
2016,12,01,01,24,3.70
2016,12,01,01,25,3.60
2016,12,01,01,26,3.60
2016,12,01,01,27,3.60
2016,12,01,01,28,3.60
2016,12,01,01,29,3.60
2016,12,01,01,30,3.60
2016,12,01,01,31,3.50
2016,12,01,01,32,3.50
2016,12,01,01,33,3.50
2016,12,01,01,34,3.50
2016,12,01,01,35,3.50
2016,12,01,01,36,3.50
2016,12,01,01,37,3.40
2016,12,01,01,38,3.40
2016,12,01,01,39,3.40
2016,12,01,01,40,3.40
2016,12,01,01,41,3.40
2016,12,01,01,42,3.40
2016,12,01,01,43,3.40
2016,12,01,01,44,3.40
2016,12,01,01,45,3.50
2016,12,01,01,46,3.50
2016,12,01,01,47,3.40
2016,12,01,01,48,3.50
2016,12,01,01,49,3.50
2016,12,01,01,50,3.40
2016,12,01,01,51,3.40
2016,12,01,01,52,3.40
2016,12,01,01,53,3.40
2016,12,01,01,54,3.40
2016,12,01,01,55,3.40
2016,12,01,01,56,3.40
2016,12,01,01,57,3.40
2016,12,01,01,58,3.40
2016,12,01,01,59,3.40
2016,12,01,02,00,3.40
2016,12,01,02,01,3.40
2016,12,01,02,02,3.30
2016,12,01,02,03,3.30
2016,12,01,02,04,3.30
2016,12,01,02,05,3.30
2016,12,01,02,06,3.30
2016,12,01,02,07,3.30
2016,12,01,02,08,3.30
2016,12,01,02,09,3.30
2016,12,01,02,10,3.30
2016,12,01,02,11,3.30
2016,12,01,02,12,3.30
2016,12,01,02,13,3.20
2016,12,01,02,14,3.20
2016,12,01,02,15,3.20
2016,12,01,02,16,3.20
2016,12,01,02,17,3.20
2016,12,01,02,18,3.20
2016,12,01,02,19,3.20
2016,12,01,02,20,3.20
2016,12,01,02,21,3.10
2016,12,01,02,22,3.10
2016,12,01,02,23,3.10
2016,12,01,02,24,3.10
2016,12,01,02,25,3.10
2016,12,01,02,26,3.10
2016,12,01,02,27,3.10
2016,12,01,02,28,3.10
2016,12,01,02,29,3.10
2016,12,01,02,30,3.10
2016,12,01,02,31,3.20
2016,12,01,02,32,3.20
2016,12,01,02,33,3.20
2016,12,01,02,34,3.20
2016,12,01,02,35,3.20
2016,12,01,02,36,3.20
2016,12,01,02,37,3.20
2016,12,01,02,38,3.20
2016,12,01,02,39,3.20
2016,12,01,02,40,3.20
2016,12,01,02,41,3.20
2016,12,01,02,42,3.20
2016,12,01,02,43,3.10
2016,12,01,02,44,3.10
2016,12,01,02,45,3.10
2016,12,01,02,46,3.20
2016,12,01,02,47,3.20
2016,12,01,02,48,3.20
2016,12,01,02,49,3.20
2016,12,01,02,50,3.20
2016,12,01,02,51,3.20
2016,12,01,02,52,3.30
2016,12,01,02,53,3.30
2016,12,01,02,54,3.30
2016,12,01,02,55,3.30
2016,12,01,02,56,3.30
2016,12,01,02,57,3.30
2016,12,01,02,58,3.30
2016,12,01,02,59,3.30
2016,12,01,03,00,3.30
2016,12,01,03,01,3.30
2016,12,01,03,02,3.30
2016,12,01,03,03,3.30
2016,12,01,03,04,3.30
2016,12,01,03,05,3.30
2016,12,01,03,06,3.30
2016,12,01,03,07,3.20
2016,12,01,03,08,3.20
2016,12,01,03,09,3.20
2016,12,01,03,10,3.20
2016,12,01,03,11,3.20
2016,12,01,03,12,3.10
2016,12,01,03,13,3.10
2016,12,01,03,14,3.10
2016,12,01,03,15,3.10
2016,12,01,03,16,3.10
2016,12,01,03,17,3.00
2016,12,01,03,18,3.00
2016,12,01,03,19,3.00
2016,12,01,03,20,3.00
2016,12,01,03,21,3.00
2016,12,01,03,22,3.00
2016,12,01,03,23,3.00
2016,12,01,03,24,2.90
2016,12,01,03,25,2.90
2016,12,01,03,26,2.90
2016,12,01,03,27,3.00
2016,12,01,03,28,2.90
2016,12,01,03,29,2.90
2016,12,01,03,30,2.90
2016,12,01,03,31,2.90
2016,12,01,03,32,2.90
2016,12,01,03,33,2.90
2016,12,01,03,34,2.90
2016,12,01,03,35,2.90
2016,12,01,03,36,2.90
2016,12,01,03,37,2.90
2016,12,01,03,38,2.90
2016,12,01,03,39,2.90
2016,12,01,03,40,2.90
2016,12,01,03,41,2.90
2016,12,01,03,42,2.90
2016,12,01,03,43,2.90
2016,12,01,03,44,2.90
2016,12,01,03,45,2.90
2016,12,01,03,46,2.90
2016,12,01,03,47,2.90
2016,12,01,03,48,2.90
2016,12,01,03,49,2.80
2016,12,01,03,50,2.80
2016,12,01,03,51,2.80
2016,12,01,03,52,2.80
2016,12,01,03,53,2.80
2016,12,01,03,54,2.80
2016,12,01,03,55,2.80
2016,12,01,03,56,2.80
2016,12,01,03,57,2.80
2016,12,01,03,58,2.70
2016,12,01,03,59,2.70
2016,12,01,04,00,2.70
2016,12,01,04,01,2.70
2016,12,01,04,02,2.70
2016,12,01,04,03,2.70
2016,12,01,04,04,2.70
2016,12,01,04,05,2.70
2016,12,01,04,06,2.70
2016,12,01,04,07,2.70
2016,12,01,04,08,2.70
2016,12,01,04,09,2.70
2016,12,01,04,10,2.60
2016,12,01,04,11,2.60
2016,12,01,04,12,2.60
2016,12,01,04,13,2.60
2016,12,01,04,14,2.60
2016,12,01,04,15,2.50
2016,12,01,04,16,2.50
2016,12,01,04,17,2.50
2016,12,01,04,18,2.50
2016,12,01,04,19,2.50
2016,12,01,04,20,2.50
2016,12,01,04,21,2.40
2016,12,01,04,22,2.40
2016,12,01,04,23,2.40
2016,12,01,04,24,2.40
2016,12,01,04,25,2.40
2016,12,01,04,26,2.40
2016,12,01,04,27,2.40
2016,12,01,04,28,2.40
2016,12,01,04,29,2.40
2016,12,01,04,30,2.40
2016,12,01,04,31,2.40
2016,12,01,04,32,2.40
2016,12,01,04,33,2.40
2016,12,01,04,34,2.50
2016,12,01,04,35,2.50
2016,12,01,04,36,2.50
2016,12,01,04,37,2.60
2016,12,01,04,38,2.60
2016,12,01,04,39,2.60
2016,12,01,04,40,2.60
2016,12,01,04,41,2.60
2016,12,01,04,42,2.70
2016,12,01,04,43,2.70
2016,12,01,04,44,2.60
2016,12,01,04,45,2.60
2016,12,01,04,46,2.60
2016,12,01,04,47,2.60
2016,12,01,04,48,2.50
2016,12,01,04,49,2.60
2016,12,01,04,50,2.60
2016,12,01,04,51,2.60
2016,12,01,04,52,2.60
2016,12,01,04,53,2.60
2016,12,01,04,54,2.60
2016,12,01,04,55,2.60
2016,12,01,04,56,2.60
2016,12,01,04,57,2.60
2016,12,01,04,58,2.60
2016,12,01,04,59,2.60
2016,12,01,05,00,2.60
2016,12,01,05,01,2.60
2016,12,01,05,02,2.60
2016,12,01,05,03,2.60
2016,12,01,05,04,2.60
2016,12,01,05,05,2.60
2016,12,01,05,06,2.70
2016,12,01,05,07,2.70
2016,12,01,05,08,2.70
2016,12,01,05,09,2.70
2016,12,01,05,10,2.70
2016,12,01,05,11,2.70
2016,12,01,05,12,2.60
2016,12,01,05,13,2.60
2016,12,01,05,14,2.70
2016,12,01,05,15,2.70
2016,12,01,05,16,2.70
2016,12,01,05,17,2.70
2016,12,01,05,18,2.70
2016,12,01,05,19,2.70
2016,12,01,05,20,2.70
2016,12,01,05,21,2.70
2016,12,01,05,22,2.70
2016,12,01,05,23,2.70
2016,12,01,05,24,2.70
2016,12,01,05,25,2.70
2016,12,01,05,26,2.60
2016,12,01,05,27,2.60
2016,12,01,05,28,2.60
2016,12,01,05,29,2.60
2016,12,01,05,30,2.60
2016,12,01,05,31,2.60
2016,12,01,05,32,2.50
2016,12,01,05,33,2.50
2016,12,01,05,34,2.50
2016,12,01,05,35,2.50
2016,12,01,05,36,2.50
2016,12,01,05,37,2.60
2016,12,01,05,38,2.60
2016,12,01,05,39,2.60
2016,12,01,05,40,2.60
2016,12,01,05,41,2.70
2016,12,01,05,42,2.70
2016,12,01,05,43,2.70
2016,12,01,05,44,2.80
2016,12,01,05,45,2.80
2016,12,01,05,46,2.80
2016,12,01,05,47,2.80
2016,12,01,05,48,2.80
2016,12,01,05,49,2.80
2016,12,01,05,50,2.80
2016,12,01,05,51,2.80
2016,12,01,05,52,2.70
2016,12,01,05,53,2.70
2016,12,01,05,54,2.70
2016,12,01,05,55,2.70
2016,12,01,05,56,2.60
2016,12,01,05,57,2.60
2016,12,01,05,58,2.60
2016,12,01,05,59,2.50
2016,12,01,06,00,2.50
2016,12,01,06,01,2.50
2016,12,01,06,02,2.40
2016,12,01,06,03,2.40
2016,12,01,06,04,2.40
2016,12,01,06,05,2.40
2016,12,01,06,06,2.40
2016,12,01,06,07,2.40
2016,12,01,06,08,2.40
2016,12,01,06,09,2.40
2016,12,01,06,10,2.40
2016,12,01,06,11,2.30
2016,12,01,06,12,2.30
2016,12,01,06,13,2.30
2016,12,01,06,14,2.30
2016,12,01,06,15,2.30
2016,12,01,06,16,2.20
2016,12,01,06,17,2.20
2016,12,01,06,18,2.20
2016,12,01,06,19,2.20
2016,12,01,06,20,2.20
2016,12,01,06,21,2.20
2016,12,01,06,22,2.20
2016,12,01,06,23,2.20
2016,12,01,06,24,2.20
2016,12,01,06,25,2.20
2016,12,01,06,26,2.30
2016,12,01,06,27,2.30
2016,12,01,06,28,2.30
2016,12,01,06,29,2.30
2016,12,01,06,30,2.30
2016,12,01,06,31,2.20
2016,12,01,06,32,2.20
2016,12,01,06,33,2.20
2016,12,01,06,34,2.20
2016,12,01,06,35,2.20
2016,12,01,06,36,2.20
2016,12,01,06,37,2.30
2016,12,01,06,38,2.30
2016,12,01,06,39,2.30
2016,12,01,06,40,2.30
2016,12,01,06,41,2.30
2016,12,01,06,42,2.30
2016,12,01,06,43,2.30
2016,12,01,06,44,2.30
2016,12,01,06,45,2.30
2016,12,01,06,46,2.30
2016,12,01,06,47,2.30
2016,12,01,06,48,2.20
2016,12,01,06,49,2.20
2016,12,01,06,50,2.20
2016,12,01,06,51,2.20
2016,12,01,06,52,2.20
2016,12,01,06,53,2.20
2016,12,01,06,54,2.20
2016,12,01,06,55,2.30
2016,12,01,06,56,2.30
2016,12,01,06,57,2.30
2016,12,01,06,58,2.40
2016,12,01,06,59,2.40
2016,12,01,07,00,2.50
2016,12,01,07,01,2.50
2016,12,01,07,02,2.60
2016,12,01,07,03,2.60
2016,12,01,07,04,2.60
2016,12,01,07,05,2.60
2016,12,01,07,06,2.70
2016,12,01,07,07,2.60
2016,12,01,07,08,2.60
2016,12,01,07,09,2.60
2016,12,01,07,10,2.60
2016,12,01,07,11,2.60
2016,12,01,07,12,2.50
2016,12,01,07,13,2.50
2016,12,01,07,14,2.40
2016,12,01,07,15,2.30
2016,12,01,07,16,2.30
2016,12,01,07,17,2.30
2016,12,01,07,18,2.30
2016,12,01,07,19,2.30
2016,12,01,07,20,2.30
2016,12,01,07,21,2.30
2016,12,01,07,22,2.30
2016,12,01,07,23,2.30
2016,12,01,07,24,2.30
2016,12,01,07,25,2.30
2016,12,01,07,26,2.30
2016,12,01,07,27,2.30
2016,12,01,07,28,2.30
2016,12,01,07,29,2.30
2016,12,01,07,30,2.30
2016,12,01,07,31,2.30
2016,12,01,07,32,2.30
2016,12,01,07,33,2.30
2016,12,01,07,34,2.30
2016,12,01,07,35,2.30
2016,12,01,07,36,2.30
2016,12,01,07,37,2.30
2016,12,01,07,38,2.30
2016,12,01,07,39,2.30
2016,12,01,07,40,2.20
2016,12,01,07,41,2.20
2016,12,01,07,42,2.20
2016,12,01,07,43,2.20
2016,12,01,07,44,2.20
2016,12,01,07,45,2.30
2016,12,01,07,46,2.30
2016,12,01,07,47,2.30
2016,12,01,07,48,2.40
2016,12,01,07,49,2.40
2016,12,01,07,50,2.40
2016,12,01,07,51,2.40
2016,12,01,07,52,2.40
2016,12,01,07,53,2.40
2016,12,01,07,54,2.40
2016,12,01,07,55,2.40
2016,12,01,07,56,2.40
2016,12,01,07,57,2.40
2016,12,01,07,58,2.50
2016,12,01,07,59,2.50
2016,12,01,08,00,2.50
2016,12,01,08,01,2.50
2016,12,01,08,02,2.50
2016,12,01,08,03,2.50
2016,12,01,08,04,2.40
2016,12,01,08,05,2.40
2016,12,01,08,06,2.40
2016,12,01,08,07,2.40
2016,12,01,08,08,2.40
2016,12,01,08,09,2.40
2016,12,01,08,10,2.40
2016,12,01,08,11,2.40
2016,12,01,08,12,2.40
2016,12,01,08,13,2.40
2016,12,01,08,14,2.40
2016,12,01,08,15,2.40
2016,12,01,08,16,2.50
2016,12,01,08,17,2.50
2016,12,01,08,18,2.60
2016,12,01,08,19,2.60
2016,12,01,08,20,2.60
2016,12,01,08,21,2.70
2016,12,01,08,22,2.70
2016,12,01,08,23,2.70
2016,12,01,08,24,2.70
2016,12,01,08,25,2.70
2016,12,01,08,26,2.70
2016,12,01,08,27,2.70
2016,12,01,08,28,2.70
2016,12,01,08,29,2.70
2016,12,01,08,30,2.70
2016,12,01,08,31,2.60
2016,12,01,08,32,2.60
2016,12,01,08,33,2.60
2016,12,01,08,34,2.60
2016,12,01,08,35,2.60
2016,12,01,08,36,2.60
2016,12,01,08,37,2.60
2016,12,01,08,38,2.60
2016,12,01,08,39,2.60
2016,12,01,08,40,2.60
2016,12,01,08,41,2.60
2016,12,01,08,42,2.60
2016,12,01,08,43,2.60
2016,12,01,08,44,2.60
2016,12,01,08,45,2.60
2016,12,01,08,46,2.70
2016,12,01,08,47,2.70
2016,12,01,08,48,2.70
2016,12,01,08,49,2.80
2016,12,01,08,50,2.80
2016,12,01,08,51,2.80
2016,12,01,08,52,2.90
2016,12,01,08,53,2.90
2016,12,01,08,54,2.90
2016,12,01,08,55,3.00
2016,12,01,08,56,3.00
2016,12,01,08,57,3.00
2016,12,01,08,58,3.00
2016,12,01,08,59,3.10
2016,12,01,09,00,3.10
2016,12,01,09,01,3.20
2016,12,01,09,02,3.20
2016,12,01,09,03,3.30
2016,12,01,09,04,3.30
2016,12,01,09,05,3.30
2016,12,01,09,06,3.40
2016,12,01,09,07,3.40
2016,12,01,09,08,3.50
2016,12,01,09,09,3.50
2016,12,01,09,10,3.50
2016,12,01,09,11,3.50
2016,12,01,09,12,3.60
2016,12,01,09,13,3.60
2016,12,01,09,14,3.60
2016,12,01,09,15,3.60
2016,12,01,09,16,3.60
2016,12,01,09,17,3.60
2016,12,01,09,18,3.60
2016,12,01,09,19,3.60
2016,12,01,09,20,3.60
2016,12,01,09,21,3.50
2016,12,01,09,22,3.50
2016,12,01,09,23,3.50
2016,12,01,09,24,3.50
2016,12,01,09,25,3.50
2016,12,01,09,26,3.50
2016,12,01,09,27,3.50
2016,12,01,09,28,3.50
2016,12,01,09,29,3.50
2016,12,01,09,30,3.50
2016,12,01,09,31,3.50
2016,12,01,09,32,3.50
2016,12,01,09,33,3.50
2016,12,01,09,34,3.50
2016,12,01,09,35,3.50
2016,12,01,09,36,3.50
2016,12,01,09,37,3.50
2016,12,01,09,38,3.50
2016,12,01,09,39,3.50
2016,12,01,09,40,3.60
2016,12,01,09,41,3.60
2016,12,01,09,42,3.60
2016,12,01,09,43,3.60
2016,12,01,09,44,3.60
2016,12,01,09,45,3.60
2016,12,01,09,46,3.70
2016,12,01,09,47,3.70
2016,12,01,09,48,3.70
2016,12,01,09,49,3.70
2016,12,01,09,50,3.70
2016,12,01,09,51,3.70
2016,12,01,09,52,3.70
2016,12,01,09,53,3.70
2016,12,01,09,54,3.70
2016,12,01,09,55,3.70
2016,12,01,09,56,3.70
2016,12,01,09,57,3.70
2016,12,01,09,58,3.70
2016,12,01,09,59,3.70
2016,12,01,10,00,3.70
2016,12,01,10,01,3.80
2016,12,01,10,02,3.80
2016,12,01,10,03,3.80
2016,12,01,10,04,3.80
2016,12,01,10,05,3.80
2016,12,01,10,06,3.80
2016,12,01,10,07,3.80
2016,12,01,10,08,3.90
2016,12,01,10,09,3.90
2016,12,01,10,10,3.90
2016,12,01,10,11,3.90
2016,12,01,10,12,3.90
2016,12,01,10,13,3.90
2016,12,01,10,14,3.90
2016,12,01,10,15,3.90
2016,12,01,10,16,3.90
2016,12,01,10,17,3.90
2016,12,01,10,18,3.90
2016,12,01,10,19,3.90
2016,12,01,10,20,3.90
2016,12,01,10,21,3.90
2016,12,01,10,22,4.00
2016,12,01,10,23,4.00
2016,12,01,10,24,4.00
2016,12,01,10,25,4.00
2016,12,01,10,26,4.00
2016,12,01,10,27,4.00
2016,12,01,10,28,4.00
2016,12,01,10,29,4.00
2016,12,01,10,30,4.10
2016,12,01,10,31,4.10
2016,12,01,10,32,4.10
2016,12,01,10,33,4.20
2016,12,01,10,34,4.20
2016,12,01,10,35,4.20
2016,12,01,10,36,4.10
2016,12,01,10,37,4.10
2016,12,01,10,38,4.10
2016,12,01,10,39,4.10
2016,12,01,10,40,4.10
2016,12,01,10,41,4.10
2016,12,01,10,42,4.20
2016,12,01,10,43,4.20
2016,12,01,10,44,4.20
2016,12,01,10,45,4.20
2016,12,01,10,46,4.20
2016,12,01,10,47,4.20
2016,12,01,10,48,4.20
2016,12,01,10,49,4.20
2016,12,01,10,50,4.30
2016,12,01,10,51,4.30
2016,12,01,10,52,4.30
2016,12,01,10,53,4.30
2016,12,01,10,54,4.30
2016,12,01,10,55,4.40
2016,12,01,10,56,4.40
2016,12,01,10,57,4.40
2016,12,01,10,58,4.40
2016,12,01,10,59,4.40
2016,12,01,11,00,4.40
2016,12,01,11,01,4.40
2016,12,01,11,02,4.40
2016,12,01,11,03,4.40
2016,12,01,11,04,4.40
2016,12,01,11,05,4.40
2016,12,01,11,06,4.40
2016,12,01,11,07,4.40
2016,12,01,11,08,4.40
2016,12,01,11,09,4.40
2016,12,01,11,10,4.50
2016,12,01,11,11,4.50
2016,12,01,11,12,4.50
2016,12,01,11,13,4.50
2016,12,01,11,14,4.50
2016,12,01,11,15,4.60
2016,12,01,11,16,4.60
2016,12,01,11,17,4.60
2016,12,01,11,18,4.60
2016,12,01,11,19,4.60
2016,12,01,11,20,4.70
2016,12,01,11,21,4.70
2016,12,01,11,22,4.70
2016,12,01,11,23,4.70
2016,12,01,11,24,4.70
2016,12,01,11,25,4.70
2016,12,01,11,26,4.70
2016,12,01,11,27,4.70
2016,12,01,11,28,4.80
2016,12,01,11,29,4.80
2016,12,01,11,30,4.80
2016,12,01,11,31,4.80
2016,12,01,11,32,4.80
2016,12,01,11,33,4.80
2016,12,01,11,34,4.80
2016,12,01,11,35,4.80
2016,12,01,11,36,4.80
2016,12,01,11,37,4.80
2016,12,01,11,38,4.80
2016,12,01,11,39,4.80
2016,12,01,11,40,4.80
2016,12,01,11,41,4.80
2016,12,01,11,42,4.80
2016,12,01,11,43,4.80
2016,12,01,11,44,4.80
2016,12,01,11,45,4.80
2016,12,01,11,46,4.80
2016,12,01,11,47,4.80
2016,12,01,11,48,4.90
2016,12,01,11,49,4.90
2016,12,01,11,50,4.90
2016,12,01,11,51,4.90
2016,12,01,11,52,4.90
2016,12,01,11,53,5.00
2016,12,01,11,54,5.00
2016,12,01,11,55,5.00
2016,12,01,11,56,5.00
2016,12,01,11,57,5.00
2016,12,01,11,58,5.00
2016,12,01,11,59,5.10
2016,12,01,12,00,5.00
2016,12,01,12,01,5.00
2016,12,01,12,02,5.00
2016,12,01,12,03,5.10
2016,12,01,12,04,5.10
2016,12,01,12,05,5.10
2016,12,01,12,06,5.10
2016,12,01,12,07,5.10
2016,12,01,12,08,5.10
2016,12,01,12,09,5.10
2016,12,01,12,10,5.10
2016,12,01,12,11,5.10
2016,12,01,12,12,5.10
2016,12,01,12,13,5.10
2016,12,01,12,14,5.10
2016,12,01,12,15,5.10
2016,12,01,12,16,5.10
2016,12,01,12,17,5.10
2016,12,01,12,18,5.10
2016,12,01,12,19,5.10
2016,12,01,12,20,5.10
2016,12,01,12,21,5.10
2016,12,01,12,22,5.10
2016,12,01,12,23,5.10
2016,12,01,12,24,5.10
2016,12,01,12,25,5.20
2016,12,01,12,26,5.20
2016,12,01,12,27,5.20
2016,12,01,12,28,5.20
2016,12,01,12,29,5.20
2016,12,01,12,30,5.20
2016,12,01,12,31,5.20
2016,12,01,12,32,5.20
2016,12,01,12,33,5.20
2016,12,01,12,34,5.30
2016,12,01,12,35,5.30
2016,12,01,12,36,5.30
2016,12,01,12,37,5.30
2016,12,01,12,38,5.30
2016,12,01,12,39,5.30
2016,12,01,12,40,5.30
2016,12,01,12,41,5.30
2016,12,01,12,42,5.30
2016,12,01,12,43,5.30
2016,12,01,12,44,5.30
2016,12,01,12,45,5.30
2016,12,01,12,46,5.30
2016,12,01,12,47,5.30
2016,12,01,12,48,5.30
2016,12,01,12,49,5.30
2016,12,01,12,50,5.30
2016,12,01,12,51,5.30
2016,12,01,12,52,5.30
2016,12,01,12,53,5.30
2016,12,01,12,54,5.30
2016,12,01,12,55,5.30
2016,12,01,12,56,5.30
2016,12,01,12,57,5.30
2016,12,01,12,58,5.30
2016,12,01,12,59,5.30
2016,12,01,13,00,5.30
2016,12,01,13,01,5.30
2016,12,01,13,02,5.40
2016,12,01,13,03,5.40
2016,12,01,13,04,5.40
2016,12,01,13,05,5.40
2016,12,01,13,06,5.40
2016,12,01,13,07,5.40
2016,12,01,13,08,5.40
2016,12,01,13,09,5.40
2016,12,01,13,10,5.40
2016,12,01,13,11,5.40
2016,12,01,13,12,5.50
2016,12,01,13,13,5.50
2016,12,01,13,14,5.50
2016,12,01,13,15,5.50
2016,12,01,13,16,5.50
2016,12,01,13,17,5.50
2016,12,01,13,18,5.50
2016,12,01,13,19,5.50
2016,12,01,13,20,5.50
2016,12,01,13,21,5.50
2016,12,01,13,22,5.50
2016,12,01,13,23,5.50
2016,12,01,13,24,5.50
2016,12,01,13,25,5.50
2016,12,01,13,26,5.50
2016,12,01,13,27,5.60
2016,12,01,13,28,5.60
2016,12,01,13,29,5.60
2016,12,01,13,30,5.60
2016,12,01,13,31,5.70
2016,12,01,13,32,5.60
2016,12,01,13,33,5.70
2016,12,01,13,34,5.70
2016,12,01,13,35,5.70
2016,12,01,13,36,5.70
2016,12,01,13,37,5.70
2016,12,01,13,38,5.70
2016,12,01,13,39,5.70
2016,12,01,13,40,5.70
2016,12,01,13,41,5.80
2016,12,01,13,42,5.80
2016,12,01,13,43,5.80
2016,12,01,13,44,5.80
2016,12,01,13,45,5.80
2016,12,01,13,46,5.70
2016,12,01,13,47,5.70
2016,12,01,13,48,5.70
2016,12,01,13,49,5.70
2016,12,01,13,50,5.70
2016,12,01,13,51,5.70
2016,12,01,13,52,5.70
2016,12,01,13,53,5.80
2016,12,01,13,54,5.80
2016,12,01,13,55,5.80
2016,12,01,13,56,5.80
2016,12,01,13,57,5.80
2016,12,01,13,58,5.80
2016,12,01,13,59,5.80
2016,12,01,14,00,5.80
2016,12,01,14,01,5.80
2016,12,01,14,02,5.90
2016,12,01,14,03,5.90
2016,12,01,14,04,5.90
2016,12,01,14,05,5.90
2016,12,01,14,06,5.90
2016,12,01,14,07,5.90
2016,12,01,14,08,5.90
2016,12,01,14,09,5.90
2016,12,01,14,10,5.90
2016,12,01,14,11,5.90
2016,12,01,14,12,5.90
2016,12,01,14,13,5.90
2016,12,01,14,14,5.90
2016,12,01,14,15,5.90
2016,12,01,14,16,5.90
2016,12,01,14,17,6.00
2016,12,01,14,18,5.90
2016,12,01,14,19,5.90
2016,12,01,14,20,5.90
2016,12,01,14,21,5.90
2016,12,01,14,22,5.90
2016,12,01,14,23,5.90
2016,12,01,14,24,5.90
2016,12,01,14,25,5.90
2016,12,01,14,26,5.90
2016,12,01,14,27,5.90
2016,12,01,14,28,5.90
2016,12,01,14,29,5.90
2016,12,01,14,30,6.00
2016,12,01,14,31,6.00
2016,12,01,14,32,6.00
2016,12,01,14,33,6.00
2016,12,01,14,34,6.00
2016,12,01,14,35,6.10
2016,12,01,14,36,6.10
2016,12,01,14,37,6.10
2016,12,01,14,38,6.10
2016,12,01,14,39,6.10
2016,12,01,14,40,6.10
2016,12,01,14,41,6.20
2016,12,01,14,42,6.20
2016,12,01,14,43,6.20
2016,12,01,14,44,6.20
2016,12,01,14,45,6.20
2016,12,01,14,46,6.20
2016,12,01,14,47,6.20
2016,12,01,14,48,6.20
2016,12,01,14,49,6.30
2016,12,01,14,50,6.30
2016,12,01,14,51,6.30
2016,12,01,14,52,6.30
2016,12,01,14,53,6.30
2016,12,01,14,54,6.30
2016,12,01,14,55,6.30
2016,12,01,14,56,6.30
2016,12,01,14,57,6.30
2016,12,01,14,58,6.30
2016,12,01,14,59,6.30
2016,12,01,15,00,6.30
2016,12,01,15,01,6.30
2016,12,01,15,02,6.30
2016,12,01,15,03,6.30
2016,12,01,15,04,6.30
2016,12,01,15,05,6.30
2016,12,01,15,06,6.40
2016,12,01,15,07,6.40
2016,12,01,15,08,6.40
2016,12,01,15,09,6.40
2016,12,01,15,10,6.40
2016,12,01,15,11,6.40
2016,12,01,15,12,6.40
2016,12,01,15,13,6.40
2016,12,01,15,14,6.40
2016,12,01,15,15,6.40
2016,12,01,15,16,6.40
2016,12,01,15,17,6.40
2016,12,01,15,18,6.40
2016,12,01,15,19,6.40
2016,12,01,15,20,6.40
2016,12,01,15,21,6.40
2016,12,01,15,22,6.40
2016,12,01,15,23,6.40
2016,12,01,15,24,6.40
2016,12,01,15,25,6.50
2016,12,01,15,26,6.50
2016,12,01,15,27,6.50
2016,12,01,15,28,6.50
2016,12,01,15,29,6.60
2016,12,01,15,30,6.50
2016,12,01,15,31,6.50
2016,12,01,15,32,6.50
2016,12,01,15,33,6.50
2016,12,01,15,34,6.40
2016,12,01,15,35,6.40
2016,12,01,15,36,6.40
2016,12,01,15,37,6.40
2016,12,01,15,38,6.40
2016,12,01,15,39,6.40
2016,12,01,15,40,6.40
2016,12,01,15,41,6.40
2016,12,01,15,42,6.30
2016,12,01,15,43,6.30
2016,12,01,15,44,6.30
2016,12,01,15,45,6.30
2016,12,01,15,46,6.30
2016,12,01,15,47,6.30
2016,12,01,15,48,6.30
2016,12,01,15,49,6.20
2016,12,01,15,50,6.20
2016,12,01,15,51,6.20
2016,12,01,15,52,6.20
2016,12,01,15,53,6.20
2016,12,01,15,54,6.20
2016,12,01,15,55,6.20
2016,12,01,15,56,6.20
2016,12,01,15,57,6.20
2016,12,01,15,58,6.20
2016,12,01,15,59,6.10
2016,12,01,16,00,6.10
2016,12,01,16,01,6.10
2016,12,01,16,02,6.10
2016,12,01,16,03,6.10
2016,12,01,16,04,6.10
2016,12,01,16,05,6.10
2016,12,01,16,06,6.10
2016,12,01,16,07,6.10
2016,12,01,16,08,6.10
2016,12,01,16,09,6.10
2016,12,01,16,10,6.10
2016,12,01,16,11,6.10
2016,12,01,16,12,6.10
2016,12,01,16,13,6.10
2016,12,01,16,14,6.10
2016,12,01,16,15,6.10
2016,12,01,16,16,6.10
2016,12,01,16,17,6.10
2016,12,01,16,18,6.10
2016,12,01,16,19,6.10
2016,12,01,16,20,6.10
2016,12,01,16,21,6.10
2016,12,01,16,22,6.10
2016,12,01,16,23,6.10
2016,12,01,16,24,6.10
2016,12,01,16,25,6.10
2016,12,01,16,26,6.10
2016,12,01,16,27,6.00
2016,12,01,16,28,6.10
2016,12,01,16,29,6.10
2016,12,01,16,30,6.00
2016,12,01,16,31,6.00
2016,12,01,16,32,6.00
2016,12,01,16,33,6.00
2016,12,01,16,34,6.00
2016,12,01,16,35,6.00
2016,12,01,16,36,6.00
2016,12,01,16,37,6.10
2016,12,01,16,38,6.10
2016,12,01,16,39,6.10
2016,12,01,16,40,6.10
2016,12,01,16,41,6.10
2016,12,01,16,42,6.10
2016,12,01,16,43,6.10
2016,12,01,16,44,6.10
2016,12,01,16,45,6.10
2016,12,01,16,46,6.10
2016,12,01,16,47,6.10
2016,12,01,16,48,6.10
2016,12,01,16,49,6.10
2016,12,01,16,50,6.10
2016,12,01,16,51,6.10
2016,12,01,16,52,6.10
2016,12,01,16,53,6.10
2016,12,01,16,54,6.10
2016,12,01,16,55,6.10
2016,12,01,16,56,6.10
2016,12,01,16,57,6.10
2016,12,01,16,58,6.10
2016,12,01,16,59,6.10
2016,12,01,17,00,6.20
2016,12,01,17,01,6.10
2016,12,01,17,02,6.20
2016,12,01,17,03,6.10
2016,12,01,17,04,6.10
2016,12,01,17,05,6.10
2016,12,01,17,06,6.10
2016,12,01,17,07,6.10
2016,12,01,17,08,6.10
2016,12,01,17,09,6.10
2016,12,01,17,10,6.10
2016,12,01,17,11,6.10
2016,12,01,17,12,6.10
2016,12,01,17,13,6.10
2016,12,01,17,14,6.10
2016,12,01,17,15,6.10
2016,12,01,17,16,6.10
2016,12,01,17,17,6.10
2016,12,01,17,18,6.10
2016,12,01,17,19,6.10
2016,12,01,17,20,6.10
2016,12,01,17,21,6.00
2016,12,01,17,22,6.00
2016,12,01,17,23,6.00
2016,12,01,17,24,5.90
2016,12,01,17,25,5.90
2016,12,01,17,26,5.90
2016,12,01,17,27,5.90
2016,12,01,17,28,5.80
2016,12,01,17,29,5.80
2016,12,01,17,30,5.80
2016,12,01,17,31,5.80
2016,12,01,17,32,5.80
2016,12,01,17,33,5.80
2016,12,01,17,34,5.80
2016,12,01,17,35,5.80
2016,12,01,17,36,5.80
2016,12,01,17,37,5.80
2016,12,01,17,38,5.80
2016,12,01,17,39,5.80
2016,12,01,17,40,5.80
2016,12,01,17,41,5.90
2016,12,01,17,42,5.90
2016,12,01,17,43,5.90
2016,12,01,17,44,5.90
2016,12,01,17,45,5.90
2016,12,01,17,46,5.90
2016,12,01,17,47,5.90
2016,12,01,17,48,5.90
2016,12,01,17,49,5.90
2016,12,01,17,50,5.90
2016,12,01,17,51,5.90
2016,12,01,17,52,6.00
2016,12,01,17,53,6.00
2016,12,01,17,54,6.00
2016,12,01,17,55,6.00
2016,12,01,17,56,6.00
2016,12,01,17,57,6.00
2016,12,01,17,58,6.00
2016,12,01,17,59,5.90
2016,12,01,18,00,5.90
2016,12,01,18,01,5.90
2016,12,01,18,02,5.90
2016,12,01,18,03,5.90
2016,12,01,18,04,5.90
2016,12,01,18,05,5.90
2016,12,01,18,06,5.90